DW6345 Murcia ES current weather conditions

sailwx.info

Wind from 090 at 6 knots gusting 14

Air temperature 26.7° C
Dewpoint 16.3° C

Last reported at 2016-May-26 15:55 UTC.
Time now 2016-May-26 16:29 UTC

Location: N 37°60' W 001°06'.
View on Google Maps.

See reports from other nearby stations

  
Tides and Currents Weather Stations Pressure Air Temp Water Temp Dewpoint Dewpoint Depression Visibility Wind Speed Wind Dir Waves Ship Positions
date/time (UTC)wind fromknots sea level pressurealtimeterstation pressurevisibilityair tempwater tempwave heightnotes
2016-May-26 15:55 090 6 gusting 14 26.7
2016-May-26 15:50 090 10 gusting 17 26.7
2016-May-26 15:45 090 9 gusting 14 26.7
2016-May-26 15:40 090 7 gusting 17 26.7
2016-May-26 15:35 130 5 gusting 12 26.7
2016-May-26 15:30 090 6 gusting 15 26.7
2016-May-26 15:25 090 9 gusting 15 26.7
2016-May-26 15:20 090 10 gusting 17 26.7
2016-May-26 15:15 090 11 gusting 15 26.7
2016-May-26 15:10 090 6 gusting 15 26.7
2016-May-26 15:05 086 8 gusting 13 26.7
2016-May-26 15:00 090 7 gusting 13 26.7
2016-May-26 14:55 090 9 gusting 15 26.7
2016-May-26 14:50 090 11 gusting 15 26.7
2016-May-26 14:45 090 8 gusting 18 26.1
2016-May-26 14:40 048 7 gusting 14 26.1
2016-May-26 14:35 048 8 gusting 13 26.1
2016-May-26 14:30 090 7 gusting 15 26.1
2016-May-26 14:25 090 10 gusting 14 26.1
2016-May-26 14:20 090 11 gusting 14 26.1
2016-May-26 14:15 090 8 gusting 17 26.1
2016-May-26 14:10 132 10 gusting 17 26.1
2016-May-26 14:05 090 11 gusting 19 26.1
2016-May-26 14:00 047 9 gusting 17 26.1
2016-May-26 13:55 090 8 gusting 15 26.1
2016-May-26 13:50 090 8 gusting 17 26.1
2016-May-26 13:45 132 9 gusting 15 26.1
2016-May-26 13:40 090 10 gusting 18 25.6
2016-May-26 13:35 132 10 gusting 18 25.6
2016-May-26 13:30 045 11 gusting 18 25.6
2016-May-26 13:25 090 11 gusting 18 25.6
2016-May-26 13:20 090 9 gusting 18 25.6
2016-May-26 13:15 090 11 gusting 15 25.6
2016-May-26 13:10 086 11 gusting 19 25.6
2016-May-26 13:05 090 10 gusting 24 25.6
2016-May-26 13:00 090 10 gusting 17 26.1
2016-May-26 12:55 047 9 gusting 14 26.1
2016-May-26 12:50 152 10 gusting 15 26.1
2016-May-26 12:45 049 7 gusting 17 25.6
2016-May-26 12:40 135 11 gusting 19 26.1
2016-May-26 12:35 093 6 gusting 15 25.6
2016-May-26 12:30 047 8 gusting 14 25.6
2016-May-26 12:25 090 9 gusting 14 25.6
2016-May-26 12:20 133 8 gusting 14 25.6
2016-May-26 12:15 090 10 gusting 14 25.6
2016-May-26 12:10 048 8 gusting 15 25.6
2016-May-26 12:05 086 10 gusting 15 25.6
2016-May-26 12:00 092 10 gusting 18 25.6
2016-May-26 11:55 090 8 gusting 15 25.6
2016-May-26 11:50 086 7 gusting 13 25.6
2016-May-26 11:45 090 8 gusting 13 25.6
2016-May-26 11:40 090 8 gusting 13 25.6
2016-May-26 11:35 176 6 gusting 14 25.6
2016-May-26 11:30 087 6 gusting 14 25.6
2016-May-26 11:25 049 8 gusting 14 25.6
2016-May-26 11:20 090 6 gusting 11 25.6
2016-May-26 11:15 049 8 gusting 13 25.0
2016-May-26 11:10 087 7 gusting 14 25.6
2016-May-26 11:05 046 6 gusting 14 25.6
2016-May-26 11:00 088 6 gusting 14 25.0
2016-May-26 10:55 090 7 gusting 14 25.0
2016-May-26 10:50 047 6 gusting 14 25.0
2016-May-26 10:45 090 6 gusting 13 25.0
2016-May-26 10:40 090 7 gusting 14 25.0
2016-May-26 10:35 090 5 gusting 11 25.0
2016-May-26 10:30 090 7 gusting 12 25.0
2016-May-26 10:25 050 6 gusting 12 24.4
2016-May-26 10:20 090 6 gusting 12 25.0
2016-May-26 10:15 090 4 gusting 7 24.4
2016-May-26 10:10 090 6 gusting 13 24.4
2016-May-26 10:05 090 4 gusting 8 24.4
2016-May-26 10:00 092 5 gusting 11 24.4
2016-May-26 09:55 090 5 gusting 11 24.4
2016-May-26 09:50 090 5 gusting 11 24.4
2016-May-26 09:45 070 4 gusting 7 23.9
2016-May-26 09:40 090 5 gusting 8 23.9
2016-May-26 09:35 090 5 gusting 10 23.9
2016-May-26 09:30 050 5 gusting 8 23.9
2016-May-26 09:25 048 4 gusting 8 23.9
2016-May-26 09:20 090 4 gusting 7 23.9
2016-May-26 09:15 047 3 gusting 6 23.3
2016-May-26 09:10 135 3 gusting 6 23.3
2016-May-26 09:05 270 0 gusting 5 22.8
2016-May-26 09:00 243 2 gusting 7 22.8
2016-May-26 08:55 045 5 gusting 6 22.8
2016-May-26 08:50 135 2 gusting 6 22.8
2016-May-26 08:45 090 5 gusting 8 22.8
2016-May-26 08:40 130 5 gusting 7 22.2
2016-May-26 08:35 130 4 gusting 6 22.2
2016-May-26 08:30 108 1 gusting 6 22.2
2016-May-26 08:25 087 5 gusting 7 22.2
2016-May-26 08:20 090 4 gusting 6 22.2
2016-May-26 08:15 134 1 gusting 4 22.2
2016-May-26 08:10 135 1 gusting 6 22.2
2016-May-26 08:05 090 0 gusting 5 21.7
2016-May-26 08:00 049 1 gusting 5 21.7
2016-May-26 07:55 090 3 gusting 6 21.7
2016-May-26 07:50 099 0 gusting 4 21.1
2016-May-26 07:45 052 2 gusting 5 21.1
2016-May-26 07:40 090 2 gusting 5 21.1
2016-May-26 07:35 131 2 gusting 5 21.1
2016-May-26 07:30 137 0 gusting 4 21.1
2016-May-26 07:25 135 1 gusting 5 21.1
2016-May-26 07:20 129 1 gusting 5 21.1
2016-May-26 07:15 170 1 gusting 5 20.6
2016-May-26 07:10 057 0 gusting 2 20.6
2016-May-26 07:05 140 0 gusting 2 20.0
2016-May-26 07:00 092 0 gusting 2 20.0
2016-May-26 06:55 176 0 gusting 2 19.4
2016-May-26 06:50 135 0 gusting 2 19.4
2016-May-26 06:45 180 0 gusting 2 19.4
2016-May-26 06:40 245 0 gusting 2 18.9
2016-May-26 06:35 180 0 gusting 2 18.9
2016-May-26 06:30 135 0 gusting 2 18.9
2016-May-26 06:25 132 0 gusting 1 18.9
2016-May-26 06:20 177 0 gusting 1 18.3
2016-May-26 06:15 090 0 gusting 1 18.3
2016-May-26 06:10 049 0 gusting 1 18.3
2016-May-26 06:05 095 0 gusting 1 18.3
2016-May-26 06:00 088 0 gusting 0 18.3
2016-May-26 05:55 135 17.8
2016-May-26 05:50 090 0 gusting 1 17.8
2016-May-26 05:45 135 0 gusting 1 17.8
2016-May-26 05:40 094 17.8
2016-May-26 05:35 180 17.8
2016-May-26 05:30 135 0 gusting 0 17.8
2016-May-26 05:25 135 0 gusting 1 17.8
2016-May-26 05:20 102 0 gusting 2 17.8
2016-May-26 05:15 135 0 gusting 2 17.8
2016-May-26 05:10 180 0 gusting 2 17.8
2016-May-26 05:05 135 0 gusting 1 17.8
2016-May-26 05:00 129 0 gusting 2 17.8
2016-May-26 04:55 090 0 gusting 2 17.8
2016-May-26 04:50 090 1 gusting 2 17.8
2016-May-26 04:45 089 1 gusting 2 17.8
2016-May-26 04:40 050 1 gusting 2 17.8
2016-May-26 04:35 088 1 gusting 2 17.8
2016-May-26 04:30 050 1 gusting 2 17.8
2016-May-26 04:25 090 0 gusting 2 17.8
2016-May-26 04:20 090 0 gusting 2 17.8
2016-May-26 04:15 090 0 gusting 1 17.8
2016-May-26 04:10 090 0 gusting 2 17.2
2016-May-26 04:05 135 0 gusting 1 17.2
2016-May-26 04:00 091 0 gusting 2 17.2
2016-May-26 03:55 090 1 gusting 2 17.2
2016-May-26 03:50 090 2 gusting 4 17.2
2016-May-26 03:45 132 0 gusting 2 17.2
2016-May-26 03:40 090 2 gusting 4 17.2
2016-May-26 03:35 090 2 gusting 4 17.2
2016-May-26 03:30 087 0 gusting 2 17.2
2016-May-26 03:25 090 1 gusting 2 17.8
2016-May-26 03:20 092 1 gusting 2 17.8
2016-May-26 03:15 133 1 gusting 5 17.8
2016-May-26 03:10 135 0 gusting 2 17.8
2016-May-26 03:05 135 0 gusting 2 17.8
2016-May-26 03:00 090 0 gusting 2 17.8
2016-May-26 02:55 093 0 gusting 2 17.8
2016-May-26 02:50 090 2 gusting 4 17.8
2016-May-26 02:45 090 0 gusting 5 17.8
2016-May-26 02:40 090 2 gusting 5 17.8
2016-May-26 02:35 090 1 gusting 2 17.8
2016-May-26 02:30 090 0 gusting 4 17.8
2016-May-26 02:25 090 2 gusting 4 17.8
2016-May-26 02:20 045 1 gusting 2 17.8
2016-May-26 02:15 131 0 gusting 1 17.8
2016-May-26 02:10 080 0 gusting 1 17.8
2016-May-26 02:05 090 0 gusting 0 17.8
2016-May-26 02:00 093 0 gusting 2 17.8
2016-May-26 01:55 045 1 gusting 2 17.8
2016-May-26 01:50 048 0 gusting 2 17.8
2016-May-26 01:45 130 2 gusting 4 17.8
2016-May-26 01:40 090 1 gusting 4 17.8
2016-May-26 01:35 090 1 gusting 2 17.8
2016-May-26 01:30 047 1 gusting 2 17.8
2016-May-26 01:25 090 0 gusting 1 17.8
2016-May-26 01:20 110 0 gusting 1 17.8
2016-May-26 01:15 132 18.3
2016-May-26 01:10 047 0 gusting 2 18.3
2016-May-26 01:05 090 2 gusting 4 18.3
2016-May-26 01:00 090 1 gusting 4 18.3
2016-May-26 00:55 130 1 gusting 2 18.3
2016-May-26 00:50 132 18.3
2016-May-26 00:45 049 18.3
2016-May-26 00:40 084 0 gusting 4 18.3
2016-May-26 00:35 090 2 gusting 4 18.3
2016-May-26 00:30 090 1 gusting 2 18.3
2016-May-26 00:25 090 1 gusting 2 18.3
2016-May-26 00:20 048 0 gusting 2 18.3
2016-May-26 00:15 090 1 gusting 2 18.3
2016-May-26 00:10 090 0 gusting 2 18.3
2016-May-26 00:05 135 0 gusting 2 18.3
2016-May-26 00:00 090 1 gusting 2 18.3
2016-May-25 23:55 087 0 gusting 2 18.3
2016-May-25 23:50 090 1 gusting 5 18.3
2016-May-25 23:45 090 2 gusting 5 18.3
2016-May-25 23:40 090 2 gusting 5 18.3
2016-May-25 23:35 087 2 gusting 5 18.9
2016-May-25 23:30 090 2 gusting 5 18.9
2016-May-25 23:25 090 2 gusting 5 18.9
2016-May-25 23:20 090 2 gusting 5 18.9
2016-May-25 23:15 128 2 gusting 5 18.9
2016-May-25 23:10 045 1 gusting 4 18.9
2016-May-25 23:00 045 1 gusting 5 18.9
2016-May-25 22:55 187 1 gusting 4 18.9
2016-May-25 22:50 045 2 gusting 5 18.9
2016-May-25 22:45 085 2 gusting 5 19.4
2016-May-25 22:40 087 2 gusting 5 19.4
2016-May-25 22:35 090 2 gusting 5 19.4
2016-May-25 22:30 088 2 gusting 5 19.4
2016-May-25 22:25 093 2 gusting 6 19.4
2016-May-25 22:20 049 5 gusting 7 19.4
2016-May-25 22:15 090 4 gusting 6 19.4
2016-May-25 22:10 090 3 gusting 6 19.4
2016-May-25 22:05 045 2 gusting 5 20.0
2016-May-25 22:00 093 2 gusting 6 20.0
2016-May-25 21:55 092 3 gusting 6 20.0
2016-May-25 21:50 051 2 gusting 5 20.0
2016-May-25 21:45 087 2 gusting 5 20.0
2016-May-25 21:40 137 0 gusting 4 20.6
2016-May-25 21:35 177 1 gusting 5 20.6
2016-May-25 21:30 137 2 gusting 5 20.6
2016-May-25 21:25 140 1 gusting 4 20.6
2016-May-25 21:20 177 0 gusting 5 20.6
2016-May-25 21:15 132 2 gusting 5 20.6
2016-May-25 21:10 090 2 gusting 5 21.1
2016-May-25 21:05 135 2 gusting 5 21.1
2016-May-25 21:00 132 2 gusting 6 21.1
2016-May-25 20:55 048 3 gusting 6 21.1
2016-May-25 20:50 132 4 gusting 6 21.1
2016-May-25 20:45 125 4 gusting 8 21.1
2016-May-25 20:40 090 5 gusting 8 21.1
2016-May-25 20:35 090 5 gusting 8 21.7
2016-May-25 20:30 090 5 gusting 7 21.7
2016-May-25 20:25 090 4 gusting 7 21.7
2016-May-25 20:20 090 5 gusting 7 21.7
2016-May-25 20:15 045 5 gusting 6 21.7
2016-May-25 20:10 090 5 gusting 6 21.7
2016-May-25 20:05 090 2 gusting 6 22.2
2016-May-25 20:00 090 4 gusting 6 22.2
2016-May-25 19:55 090 3 gusting 6 22.2
2016-May-25 19:50 090 2 gusting 5 22.2
2016-May-25 19:45 048 1 gusting 5 22.2
2016-May-25 19:40 090 2 gusting 5 22.8
2016-May-25 19:35 090 3 gusting 5 22.8
2016-May-25 19:30 090 2 gusting 6 22.8
2016-May-25 19:25 088 4 gusting 6 22.8
2016-May-25 19:20 090 2 gusting 8 22.8
2016-May-25 19:15 047 5 gusting 8 23.3
2016-May-25 19:10 045 4 gusting 8 23.3
2016-May-25 19:05 090 5 gusting 8 23.3
2016-May-25 19:00 090 4 gusting 8 23.3
2016-May-25 18:55 129 4 gusting 10 23.3
2016-May-25 18:50 090 7 gusting 12 23.3
2016-May-25 18:45 093 5 gusting 11 23.9
2016-May-25 18:40 090 8 gusting 11 23.9
2016-May-25 18:35 319 5 gusting 11 23.9
2016-May-25 18:30 045 5 gusting 8 23.9
2016-May-25 18:25 090 5 gusting 7 23.9
2016-May-25 18:20 045 6 gusting 11 23.9
2016-May-25 18:15 090 6 gusting 13 23.9
2016-May-25 18:10 090 7 gusting 13 23.9
2016-May-25 18:05 090 6 gusting 13 23.9
2016-May-25 18:00 093 5 gusting 13 23.9
2016-May-25 17:55 090 9 gusting 14 23.9
2016-May-25 17:50 048 9 gusting 15 24.4
2016-May-25 17:45 090 9 gusting 14 24.4
2016-May-25 17:40 177 9 gusting 14 24.4
2016-May-25 17:35 090 11 gusting 15 24.4
2016-May-25 17:30 090 8 gusting 14 24.4
2016-May-25 17:25 094 7 gusting 14 24.4
2016-May-25 17:20 048 8 gusting 14 24.4
2016-May-25 17:15 090 9 gusting 13 24.4
2016-May-25 17:10 090 9 gusting 17 24.4
2016-May-25 17:05 049 9 gusting 15 24.4
2016-May-25 17:00 090 10 gusting 15 24.4
2016-May-25 16:55 090 8 gusting 14 25.0
2016-May-25 16:50 094 10 gusting 14 25.0
2016-May-25 16:45 270 7 gusting 14 25.6
2016-May-25 16:40 090 8 gusting 14 25.6
2016-May-25 16:35 131 8 gusting 13 25.6
2016-May-25 16:30 090 8 gusting 17 25.6
2016-May-25 16:25 341 8 gusting 17 25.6
2016-May-25 16:20 048 10 gusting 15 26.1
2016-May-25 16:10 175 10 gusting 18 26.7
2016-May-25 16:05 090 10 gusting 18 26.7
2016-May-25 16:00 090 8 gusting 14 26.7
2016-May-25 15:55 132 8 gusting 13 26.7
2016-May-25 15:50 087 8 gusting 14 26.7
2016-May-25 15:45 092 7 gusting 15 26.7
2016-May-25 15:40 088 8 gusting 18 26.7
2016-May-25 15:35 129 7 gusting 17 26.7
2016-May-25 15:30 090 10 gusting 20 26.7
2016-May-25 15:25 090 10 gusting 20 26.7
2016-May-25 15:15 048 11 gusting 18 26.7
2016-May-25 15:10 090 12 gusting 19 26.7
2016-May-25 15:05 047 12 gusting 17 26.7
2016-May-25 15:00 090 12 gusting 18 26.7
2016-May-25 14:55 090 9 gusting 18 26.7
2016-May-25 14:50 092 7 gusting 17 26.7
2016-May-25 14:40 093 11 gusting 19 26.7
2016-May-25 14:35 132 11 gusting 18 27.2
2016-May-25 14:30 090 11 gusting 17 27.2
2016-May-25 14:25 090 10 gusting 17 27.2
2016-May-25 14:20 090 11 gusting 20 27.2
2016-May-25 14:15 090 9 gusting 17 27.8
2016-May-25 14:10 090 8 gusting 14 27.8
2016-May-25 14:00 090 7 gusting 15 27.8
2016-May-25 13:55 090 10 gusting 19 27.2
2016-May-25 13:50 048 11 gusting 18 27.2
2016-May-25 13:45 087 11 gusting 18 27.2
2016-May-25 13:40 048 10 gusting 18 27.2
2016-May-25 13:35 048 12 gusting 18 27.2
2016-May-25 13:25 070 10 gusting 15 27.8
2016-May-25 13:10 045 11 gusting 18 27.8
2016-May-25 13:05 090 12 gusting 17 27.8
2016-May-25 13:00 090 10 gusting 19 27.8
2016-May-25 12:55 048 13 gusting 19 27.8
2016-May-25 12:50 049 12 gusting 18 28.3
2016-May-25 12:45 087 8 gusting 14 28.3
2016-May-25 12:40 048 10 gusting 18 28.3
2016-May-25 12:35 130 11 gusting 19 27.8
2016-May-25 12:30 176 10 gusting 18 28.3
2016-May-25 12:25 132 10 gusting 19 28.3
2016-May-25 12:15 090 11 gusting 17 28.9
2016-May-25 12:10 090 8 gusting 14 29.4
2016-May-25 12:05 093 8 gusting 13 29.4
2016-May-25 12:00 132 7 gusting 13 29.4
2016-May-25 11:50 090 6 gusting 10 29.4
2016-May-25 11:40 090 5 gusting 7 29.4
2016-May-25 11:35 090 4 gusting 8 29.4
2016-May-25 11:30 051 2 gusting 11 28.9
2016-May-25 11:25 090 5 gusting 11 28.9
2016-May-25 11:20 046 2 gusting 8 28.9
2016-May-25 11:15 090 6 gusting 8 28.9
2016-May-25 11:10 048 2 gusting 6 28.9
2016-May-25 11:05 090 4 gusting 6 28.3
2016-May-25 11:00 090 2 gusting 6 28.3
2016-May-25 10:55 090 5 gusting 7 28.3
2016-May-25 10:45 243 0 gusting 8 28.3
2016-May-25 10:40 091 2 gusting 8 28.9
2016-May-25 10:35 126 0 gusting 4 28.3
2016-May-25 10:30 140 0 gusting 6 27.8
2016-May-25 10:25 090 2 gusting 6 27.8
2016-May-25 10:20 177 1 gusting 5 27.8
2016-May-25 10:15 096 4 gusting 6 27.8
2016-May-25 10:05 176 2 gusting 5 27.2
2016-May-25 10:00 090 3 gusting 6 27.2
2016-May-25 09:55 041 0 gusting 5 27.2
2016-May-25 09:50 132 2 gusting 5 26.7
2016-May-25 09:45 245 0 gusting 2 26.1
2016-May-25 06:39 310 2 gusting 6 18.9
2016-May-25 06:34 18.3
2016-May-25 06:29 184 3 gusting 6 18.3
2016-May-25 06:24 272 4 gusting 6 18.3
2016-May-25 06:19 250 3 gusting 6 18.3
2016-May-25 06:14 270 2 gusting 5 18.3
2016-May-25 06:09 184 1 gusting 5 18.3
2016-May-25 06:04 268 1 gusting 5 18.3
2016-May-25 05:59 312 2 gusting 5 18.3
2016-May-25 05:54 270 2 gusting 4 17.8
2016-May-25 05:49 272 1 gusting 4 17.8
2016-May-25 05:44 250 0 gusting 1 17.8
2016-May-25 05:39 248 0 gusting 0 17.8
2016-May-25 05:34 090 0 gusting 1 17.8
2016-May-25 05:29 090 0 gusting 0 17.8
2016-May-25 05:24 094 17.2
2016-May-25 05:19 180 17.2
2016-May-25 05:14 180 17.2
2016-May-25 05:09 180 0 gusting 1 17.2
2016-May-25 05:04 180 17.2
2016-May-25 04:59 135 0 gusting 2 17.2
2016-May-25 04:54 178 0 gusting 0 17.8
2016-May-25 04:49 180 17.2
2016-May-25 04:44 315 17.2
2016-May-25 04:39 180 17.2
2016-May-25 04:34 315 0 gusting 0 17.2
2016-May-25 04:29 137 0 gusting 1 17.2
2016-May-25 04:24 045 0 gusting 1 17.2
2016-May-25 04:19 095 17.2
2016-May-25 04:14 090 0 gusting 1 17.2
2016-May-25 04:09 270 0 gusting 0 17.2
2016-May-25 04:04 315 17.2
2016-May-25 03:59 315 0 gusting 1 17.2
2016-May-25 03:54 090 17.2
2016-May-25 03:49 045 0 gusting 1 17.2
2016-May-25 03:44 176 17.2
2016-May-25 03:39 090 0 gusting 2 17.2
2016-May-25 03:34 090 0 gusting 2 17.8
2016-May-25 03:29 130 1 gusting 2 17.8
2016-May-25 03:24 093 0 gusting 1 17.8
2016-May-25 03:19 090 0 gusting 0 17.8
2016-May-25 03:14 048 0 gusting 1 17.8
2016-May-25 03:04 135 0 gusting 1 17.8
2016-May-25 02:59 135 0 gusting 2 17.8
2016-May-25 02:54 180 0 gusting 2 17.8
2016-May-25 02:49 180 0 gusting 1 17.8
2016-May-25 02:44 135 17.8
2016-May-25 02:34 128 0 gusting 1 17.8
2016-May-25 02:29 090 0 gusting 2 17.8
2016-May-25 02:24 090 0 gusting 1 17.8
2016-May-25 02:19 093 0 gusting 2 17.8
2016-May-25 02:14 090 0 gusting 2 17.8
2016-May-25 02:04 090 1 gusting 2 17.8
2016-May-25 01:59 091 0 gusting 2 17.8
2016-May-25 01:54 156 0 gusting 2 17.8
2016-May-25 01:34 090 1 gusting 2 17.8
2016-May-25 01:29 132 0 gusting 1 17.8
2016-May-25 01:24 135 0 gusting 1 17.8
2016-May-25 01:19 132 17.8
2016-May-25 01:09 090 0 gusting 1 17.8
2016-May-25 01:04 090 0 gusting 2 17.8
2016-May-25 00:59 132 1 gusting 2 17.8
2016-May-25 00:54 090 0 gusting 2 18.3
2016-May-25 00:49 132 0 gusting 2 18.3
2016-May-25 00:44 090 0 gusting 2 18.3
2016-May-25 00:39 090 0 gusting 2 18.3
2016-May-25 00:34 090 0 gusting 2 18.3
2016-May-25 00:29 090 0 gusting 2 18.3
2016-May-25 00:24 048 1 gusting 4 18.3
2016-May-25 00:19 065 1 gusting 2 18.3
2016-May-25 00:14 087 0 gusting 2 18.3
2016-May-25 00:09 315 0 gusting 1 18.3
2016-May-25 00:04 315 0 gusting 1 18.9
2016-May-24 23:59 130 0 gusting 2 18.9
2016-May-24 23:54 090 0 gusting 2 18.9
2016-May-24 23:49 048 0 gusting 1 18.9
2016-May-24 23:44 180 18.9
2016-May-24 23:39 180 18.9
2016-May-24 23:29 182 0 gusting 2 18.3
2016-May-24 23:24 175 1 gusting 5 18.3
2016-May-24 23:19 175 1 gusting 6 18.3
2016-May-24 23:14 135 2 gusting 5 18.3
2016-May-24 23:09 180 0 gusting 2 18.3
2016-May-24 23:04 135 0 gusting 2 18.3
2016-May-24 22:59 137 0 gusting 2 18.3
2016-May-24 22:54 135 1 gusting 2 18.9
2016-May-24 22:49 090 1 gusting 2 18.3
2016-May-24 22:44 141 0 gusting 4 18.9
2016-May-24 22:39 090 1 gusting 4 18.9
2016-May-24 22:34 090 1 gusting 2 18.9
2016-May-24 22:29 090 2 gusting 4 18.9
2016-May-24 22:24 090 1 gusting 5 18.9
2016-May-24 22:19 090 1 gusting 5 18.9
2016-May-24 22:14 003 2 gusting 5 18.9
2016-May-24 22:09 048 1 gusting 5 18.9
2016-May-24 22:04 045 2 gusting 5 19.4
2016-May-24 21:54 045 2 gusting 6 19.4
2016-May-24 21:49 045 4 gusting 6 19.4
2016-May-24 21:44 048 2 gusting 5 19.4
2016-May-24 21:39 090 2 gusting 6 19.4
2016-May-24 21:34 090 2 gusting 6 19.4
2016-May-24 21:29 087 3 gusting 6 19.4
2016-May-24 21:24 090 4 gusting 6 19.4
2016-May-24 21:14 087 2 gusting 7 19.4
2016-May-24 21:09 047 5 gusting 7 20.0
2016-May-24 21:04 090 5 gusting 7 20.0
2016-May-24 20:59 087 5 gusting 7 20.0
2016-May-24 20:54 090 3 gusting 6 20.0
2016-May-24 20:44 090 4 gusting 6 20.0
2016-May-24 20:39 086 4 gusting 6 20.0
2016-May-24 20:34 090 4 gusting 7 20.0
2016-May-24 20:29 090 4 gusting 7 20.6
2016-May-24 20:24 089 4 gusting 7 20.6
2016-May-24 20:19 090 2 gusting 6 20.6
2016-May-24 20:14 090 3 gusting 6 20.6
2016-May-24 20:09 090 2 gusting 6 20.6
2016-May-24 20:04 090 2 gusting 6 20.6
2016-May-24 19:59 092 4 gusting 7 20.6
2016-May-24 19:54 049 3 gusting 8 20.6
2016-May-24 19:44 090 5 gusting 10 20.6
2016-May-24 19:39 048 6 gusting 8 21.1
2016-May-24 19:34 090 5 gusting 8 21.1
2016-May-24 19:29 047 5 gusting 8 21.1
2016-May-24 19:24 090 6 gusting 11 21.1
2016-May-24 19:14 090 5 gusting 8 21.1
2016-May-24 19:04 090 6 gusting 10 21.7
2016-May-24 18:59 090 6 gusting 11 21.7
2016-May-24 18:54 047 5 gusting 11 21.7
2016-May-24 18:49 048 6 gusting 10 21.7
2016-May-24 18:39 092 6 gusting 10 22.2
2016-May-24 18:34 048 5 gusting 10 22.2
2016-May-24 18:29 045 6 gusting 10 22.2
2016-May-24 18:24 069 6 gusting 8 22.2
2016-May-24 18:19 176 6 gusting 10 22.8
2016-May-24 18:14 090 6 gusting 10 22.8
2016-May-24 18:09 131 6 gusting 13 22.8
2016-May-24 18:04 048 8 gusting 13 22.8
2016-May-24 17:54 045 7 gusting 11 23.3
2016-May-24 17:49 090 6 gusting 11 23.3
2016-May-24 17:39 093 6 gusting 12 23.3
2016-May-24 17:34 087 6 gusting 11 23.9
2016-May-24 17:24 086 4 gusting 12 23.9
2016-May-24 17:14 048 6 gusting 13 23.9
2016-May-24 17:09 090 8 gusting 13 23.9
2016-May-24 16:59 087 6 gusting 13 24.4
2016-May-24 16:54 090 6 gusting 12 24.4
2016-May-24 16:49 130 6 gusting 12 24.4
2016-May-24 16:44 047 7 gusting 13 25.0
2016-May-24 16:39 090 4 gusting 11 25.0
2016-May-24 16:34 087 6 gusting 11 25.0
2016-May-24 16:29 090 6 gusting 12 25.0
2016-May-24 16:24 092 5 gusting 13 25.0
2016-May-24 16:19 049 4 gusting 13 25.0
2016-May-24 16:14 089 7 gusting 13 25.0
2016-May-24 16:09 131 9 gusting 15 25.0
2016-May-24 16:04 090 7 gusting 11 25.0